Year,Month,Day,Hour,Minute,Value (Times are PST for temperature in C)
2015,05,27,00,00,13.20
2015,05,27,00,01,13.20
2015,05,27,00,02,13.20
2015,05,27,00,03,13.20
2015,05,27,00,04,13.20
2015,05,27,00,05,13.20
2015,05,27,00,06,13.20
2015,05,27,00,07,13.20
2015,05,27,00,08,13.20
2015,05,27,00,09,13.20
2015,05,27,00,10,13.20
2015,05,27,00,11,13.20
2015,05,27,00,12,13.30
2015,05,27,00,13,13.30
2015,05,27,00,14,13.30
2015,05,27,00,15,13.30
2015,05,27,00,16,13.30
2015,05,27,00,17,13.30
2015,05,27,00,18,13.30
2015,05,27,00,19,13.30
2015,05,27,00,20,13.30
2015,05,27,00,21,13.30
2015,05,27,00,22,13.30
2015,05,27,00,23,13.30
2015,05,27,00,24,13.30
2015,05,27,00,25,13.30
2015,05,27,00,26,13.30
2015,05,27,00,27,13.30
2015,05,27,00,28,13.30
2015,05,27,00,29,13.30
2015,05,27,00,30,13.30
2015,05,27,00,31,13.30
2015,05,27,00,32,13.30
2015,05,27,00,33,13.30
2015,05,27,00,34,13.20
2015,05,27,00,35,13.20
2015,05,27,00,36,13.20
2015,05,27,00,37,13.20
2015,05,27,00,38,13.20
2015,05,27,00,39,13.20
2015,05,27,00,40,13.20
2015,05,27,00,41,13.20
2015,05,27,00,42,13.10
2015,05,27,00,43,13.10
2015,05,27,00,44,13.10
2015,05,27,00,45,13.10
2015,05,27,00,46,13.10
2015,05,27,00,47,13.10
2015,05,27,00,48,13.10
2015,05,27,00,49,13.10
2015,05,27,00,50,13.10
2015,05,27,00,51,13.10
2015,05,27,00,52,13.20
2015,05,27,00,53,13.20
2015,05,27,00,54,13.20
2015,05,27,00,55,13.20
2015,05,27,00,56,13.20
2015,05,27,00,57,13.20
2015,05,27,00,58,13.20
2015,05,27,00,59,13.20
2015,05,27,01,00,13.20
2015,05,27,01,01,13.30
2015,05,27,01,02,13.30
2015,05,27,01,03,13.30
2015,05,27,01,04,13.30
2015,05,27,01,05,13.30
2015,05,27,01,06,13.30
2015,05,27,01,07,13.30
2015,05,27,01,08,13.20
2015,05,27,01,09,13.20
2015,05,27,01,10,13.20
2015,05,27,01,11,13.20
2015,05,27,01,12,13.20
2015,05,27,01,13,13.20
2015,05,27,01,14,13.20
2015,05,27,01,15,13.10
2015,05,27,01,16,13.10
2015,05,27,01,17,13.10
2015,05,27,01,18,13.10
2015,05,27,01,19,13.10
2015,05,27,01,20,13.00
2015,05,27,01,21,13.00
2015,05,27,01,22,13.00
2015,05,27,01,23,13.00
2015,05,27,01,24,13.00
2015,05,27,01,25,13.00
2015,05,27,01,26,12.90
2015,05,27,01,27,12.90
2015,05,27,01,28,12.90
2015,05,27,01,29,12.90
2015,05,27,01,30,12.90
2015,05,27,01,31,12.90
2015,05,27,01,32,12.80
2015,05,27,01,33,12.80
2015,05,27,01,34,12.80
2015,05,27,01,35,12.80
2015,05,27,01,36,12.80
2015,05,27,01,37,12.80
2015,05,27,01,38,12.80
2015,05,27,01,39,12.80
2015,05,27,01,40,12.80
2015,05,27,01,41,12.80
2015,05,27,01,42,12.80
2015,05,27,01,43,12.70
2015,05,27,01,44,12.70
2015,05,27,01,45,12.70
2015,05,27,01,46,12.60
2015,05,27,01,47,12.60
2015,05,27,01,48,12.60
2015,05,27,01,49,12.50
2015,05,27,01,50,12.50
2015,05,27,01,51,12.40
2015,05,27,01,52,12.40
2015,05,27,01,53,12.30
2015,05,27,01,54,12.30
2015,05,27,01,55,12.30
2015,05,27,01,56,12.30
2015,05,27,01,57,12.30
2015,05,27,01,58,12.30
2015,05,27,01,59,12.30
2015,05,27,02,00,12.30
2015,05,27,02,01,12.20
2015,05,27,02,02,12.20
2015,05,27,02,03,12.20
2015,05,27,02,04,12.20
2015,05,27,02,05,12.20
2015,05,27,02,06,12.10
2015,05,27,02,07,12.10
2015,05,27,02,08,12.10
2015,05,27,02,09,12.10
2015,05,27,02,10,12.10
2015,05,27,02,11,12.00
2015,05,27,02,12,12.00
2015,05,27,02,13,12.00
2015,05,27,02,14,11.90
2015,05,27,02,15,11.90
2015,05,27,02,16,11.90
2015,05,27,02,17,11.90
2015,05,27,02,18,11.90
2015,05,27,02,19,11.80
2015,05,27,02,20,11.80
2015,05,27,02,21,11.80
2015,05,27,02,22,11.80
2015,05,27,02,23,11.80
2015,05,27,02,24,11.80
2015,05,27,02,25,11.80
2015,05,27,02,26,11.80
2015,05,27,02,27,11.70
2015,05,27,02,28,11.70
2015,05,27,02,29,11.70
2015,05,27,02,30,11.70
2015,05,27,02,31,11.70
2015,05,27,02,32,11.70
2015,05,27,02,33,11.70
2015,05,27,02,34,11.70
2015,05,27,02,35,11.70
2015,05,27,02,36,11.70
2015,05,27,02,37,11.70
2015,05,27,02,38,11.70
2015,05,27,02,39,11.60
2015,05,27,02,40,11.60
2015,05,27,02,41,11.60
2015,05,27,02,42,11.60
2015,05,27,02,43,11.60
2015,05,27,02,44,11.60
2015,05,27,02,45,11.60
2015,05,27,02,46,11.70
2015,05,27,02,47,11.70
2015,05,27,02,48,11.70
2015,05,27,02,49,11.70
2015,05,27,02,50,11.70
2015,05,27,02,51,11.70
2015,05,27,02,52,11.70
2015,05,27,02,53,11.70
2015,05,27,02,54,11.70
2015,05,27,02,55,11.70
2015,05,27,02,56,11.70
2015,05,27,02,57,11.70
2015,05,27,02,58,11.70
2015,05,27,02,59,11.70
2015,05,27,03,00,11.70
2015,05,27,03,01,11.70
2015,05,27,03,02,11.70
2015,05,27,03,03,11.80
2015,05,27,03,04,11.70
2015,05,27,03,05,11.70
2015,05,27,03,06,11.70
2015,05,27,03,07,11.70
2015,05,27,03,08,11.70
2015,05,27,03,09,11.70
2015,05,27,03,10,11.70
2015,05,27,03,11,11.60
2015,05,27,03,12,11.60
2015,05,27,03,13,11.60
2015,05,27,03,14,11.60
2015,05,27,03,15,11.60
2015,05,27,03,16,11.60
2015,05,27,03,17,11.60
2015,05,27,03,18,11.60
2015,05,27,03,19,11.60
2015,05,27,03,20,11.60
2015,05,27,03,21,11.60
2015,05,27,03,22,11.60
2015,05,27,03,23,11.60
2015,05,27,03,24,11.60
2015,05,27,03,25,11.60
2015,05,27,03,26,11.60
2015,05,27,03,27,11.60
2015,05,27,03,28,11.60
2015,05,27,03,29,11.60
2015,05,27,03,30,11.60
2015,05,27,03,31,11.60
2015,05,27,03,32,11.60
2015,05,27,03,33,11.60
2015,05,27,03,34,11.60
2015,05,27,03,35,11.60
2015,05,27,03,36,11.60
2015,05,27,03,37,11.60
2015,05,27,03,38,11.60
2015,05,27,03,39,11.60
2015,05,27,03,40,11.60
2015,05,27,03,41,11.60
2015,05,27,03,42,11.40
2015,05,27,03,43,11.40
2015,05,27,03,44,11.40
2015,05,27,03,45,11.40
2015,05,27,03,46,11.40
2015,05,27,03,47,11.40
2015,05,27,03,48,11.40
2015,05,27,03,49,11.40
2015,05,27,03,50,11.40
2015,05,27,03,51,11.40
2015,05,27,03,52,11.40
2015,05,27,03,53,11.40
2015,05,27,03,54,11.40
2015,05,27,03,55,11.40
2015,05,27,03,56,11.40
2015,05,27,03,57,11.30
2015,05,27,03,58,11.30
2015,05,27,03,59,11.30
2015,05,27,04,00,11.30
2015,05,27,04,01,11.30
2015,05,27,04,02,11.20
2015,05,27,04,03,11.20
2015,05,27,04,04,11.20
2015,05,27,04,05,11.20
2015,05,27,04,06,11.20
2015,05,27,04,07,11.20
2015,05,27,04,08,11.10
2015,05,27,04,09,11.10
2015,05,27,04,10,11.10
2015,05,27,04,11,11.10
2015,05,27,04,12,11.10
2015,05,27,04,13,11.10
2015,05,27,04,14,11.10
2015,05,27,04,15,11.10
2015,05,27,04,16,11.10
2015,05,27,04,17,11.10
2015,05,27,04,18,11.10
2015,05,27,04,19,11.10
2015,05,27,04,20,11.10
2015,05,27,04,21,11.10
2015,05,27,04,22,11.10
2015,05,27,04,23,11.10
2015,05,27,04,24,11.10
2015,05,27,04,25,11.10
2015,05,27,04,26,11.10
2015,05,27,04,27,11.10
2015,05,27,04,28,11.10
2015,05,27,04,29,11.00
2015,05,27,04,30,10.90
2015,05,27,04,31,10.90
2015,05,27,04,32,10.90
2015,05,27,04,33,10.90
2015,05,27,04,34,10.90
2015,05,27,04,35,10.90
2015,05,27,04,36,10.90
2015,05,27,04,37,10.90
2015,05,27,04,38,10.90
2015,05,27,04,39,10.90
2015,05,27,04,40,10.90
2015,05,27,04,41,10.90
2015,05,27,04,42,10.90
2015,05,27,04,43,10.90
2015,05,27,04,44,10.90
2015,05,27,04,45,10.90
2015,05,27,04,46,10.90
2015,05,27,04,47,10.90
2015,05,27,04,48,10.90
2015,05,27,04,49,10.90
2015,05,27,04,50,10.90
2015,05,27,04,51,10.90
2015,05,27,04,52,10.80
2015,05,27,04,53,10.80
2015,05,27,04,54,10.80
2015,05,27,04,55,10.80
2015,05,27,04,56,10.80
2015,05,27,04,57,10.80
2015,05,27,04,58,10.80
2015,05,27,04,59,10.70
2015,05,27,05,00,10.70
2015,05,27,05,01,10.70
2015,05,27,05,02,10.70
2015,05,27,05,03,10.70
2015,05,27,05,04,10.70
2015,05,27,05,05,10.70
2015,05,27,05,06,10.70
2015,05,27,05,07,10.60
2015,05,27,05,08,10.60
2015,05,27,05,09,10.60
2015,05,27,05,10,10.60
2015,05,27,05,11,10.60
2015,05,27,05,12,10.60
2015,05,27,05,13,10.60
2015,05,27,05,14,10.60
2015,05,27,05,15,10.60
2015,05,27,05,16,10.60
2015,05,27,05,17,10.60
2015,05,27,05,18,10.60
2015,05,27,05,19,10.60
2015,05,27,05,20,10.60
2015,05,27,05,21,10.60
2015,05,27,05,22,10.60
2015,05,27,05,23,10.60
2015,05,27,05,24,10.60
2015,05,27,05,25,10.60
2015,05,27,05,26,10.60
2015,05,27,05,27,10.50
2015,05,27,05,28,10.40
2015,05,27,05,29,10.40
2015,05,27,05,30,10.40
2015,05,27,05,31,10.40
2015,05,27,05,32,10.40
2015,05,27,05,33,10.40
2015,05,27,05,34,10.40
2015,05,27,05,35,10.40
2015,05,27,05,36,10.40
2015,05,27,05,37,10.40
2015,05,27,05,38,10.40
2015,05,27,05,39,10.40
2015,05,27,05,40,10.40
2015,05,27,05,41,10.40
2015,05,27,05,42,10.40
2015,05,27,05,43,10.50
2015,05,27,05,44,10.60
2015,05,27,05,45,10.60
2015,05,27,05,46,10.60
2015,05,27,05,47,10.60
2015,05,27,05,48,10.60
2015,05,27,05,49,10.60
2015,05,27,05,50,10.60
2015,05,27,05,51,10.60
2015,05,27,05,52,10.60
2015,05,27,05,53,10.60
2015,05,27,05,54,10.60
2015,05,27,05,55,10.60
2015,05,27,05,56,10.60
2015,05,27,05,57,10.60
2015,05,27,05,58,10.60
2015,05,27,05,59,10.60
2015,05,27,06,00,10.60
2015,05,27,06,01,10.60
2015,05,27,06,02,10.70
2015,05,27,06,03,10.70
2015,05,27,06,04,10.70
2015,05,27,06,05,10.70
2015,05,27,06,06,10.70
2015,05,27,06,07,10.70
2015,05,27,06,08,10.70
2015,05,27,06,09,10.70
2015,05,27,06,10,10.70
2015,05,27,06,11,10.70
2015,05,27,06,12,10.80
2015,05,27,06,13,10.70
2015,05,27,06,14,10.70
2015,05,27,06,15,10.70
2015,05,27,06,16,10.70
2015,05,27,06,17,10.80
2015,05,27,06,18,10.80
2015,05,27,06,19,10.70
2015,05,27,06,20,10.70
2015,05,27,06,21,10.70
2015,05,27,06,22,10.70
2015,05,27,06,23,10.70
2015,05,27,06,24,10.70
2015,05,27,06,25,10.70
2015,05,27,06,26,10.70
2015,05,27,06,27,10.70
2015,05,27,06,28,10.70
2015,05,27,06,29,10.70
2015,05,27,06,30,10.70
2015,05,27,06,31,10.70
2015,05,27,06,32,10.70
2015,05,27,06,33,10.70
2015,05,27,06,34,10.70
2015,05,27,06,35,10.70
2015,05,27,06,36,10.70
2015,05,27,06,37,10.70
2015,05,27,06,38,10.70
2015,05,27,06,39,10.80
2015,05,27,06,40,10.80
2015,05,27,06,41,10.80
2015,05,27,06,42,10.90
2015,05,27,06,43,10.80
2015,05,27,06,44,10.80
2015,05,27,06,45,10.80
2015,05,27,06,46,10.80
2015,05,27,06,47,10.80
2015,05,27,06,48,10.70
2015,05,27,06,49,10.70
2015,05,27,06,50,10.70
2015,05,27,06,51,10.60
2015,05,27,06,52,10.60
2015,05,27,06,53,10.70
2015,05,27,06,54,10.70
2015,05,27,06,55,10.80
2015,05,27,06,56,10.80
2015,05,27,06,57,10.80
2015,05,27,06,58,10.90
2015,05,27,06,59,10.90
2015,05,27,07,00,10.90
2015,05,27,07,01,10.90
2015,05,27,07,02,11.00
2015,05,27,07,03,11.10
2015,05,27,07,04,11.10
2015,05,27,07,05,11.10
2015,05,27,07,06,11.10
2015,05,27,07,07,11.10
2015,05,27,07,08,11.10
2015,05,27,07,09,11.10
2015,05,27,07,10,11.10
2015,05,27,07,11,11.10
2015,05,27,07,12,11.10
2015,05,27,07,13,11.10
2015,05,27,07,14,11.20
2015,05,27,07,15,11.10
2015,05,27,07,16,11.20
2015,05,27,07,17,11.20
2015,05,27,07,18,11.20
2015,05,27,07,19,11.30
2015,05,27,07,20,11.30
2015,05,27,07,21,11.40
2015,05,27,07,22,11.40
2015,05,27,07,23,11.40
2015,05,27,07,24,11.40
2015,05,27,07,25,11.50
2015,05,27,07,26,11.60
2015,05,27,07,27,11.60
2015,05,27,07,28,11.70
2015,05,27,07,29,11.80
2015,05,27,07,30,11.80
2015,05,27,07,31,11.80
2015,05,27,07,32,11.80
2015,05,27,07,33,11.80
2015,05,27,07,34,11.90
2015,05,27,07,35,12.00
2015,05,27,07,36,12.00
2015,05,27,07,37,12.00
2015,05,27,07,38,12.10
2015,05,27,07,39,12.10
2015,05,27,07,40,12.10
2015,05,27,07,41,12.10
2015,05,27,07,42,12.10
2015,05,27,07,43,12.10
2015,05,27,07,44,12.20
2015,05,27,07,45,12.20
2015,05,27,07,46,12.20
2015,05,27,07,47,12.30
2015,05,27,07,48,12.30
2015,05,27,07,49,12.30
2015,05,27,07,50,12.30
2015,05,27,07,51,12.30
2015,05,27,07,52,12.30
2015,05,27,07,53,12.40
2015,05,27,07,54,12.40
2015,05,27,07,55,12.50
2015,05,27,07,56,12.50
2015,05,27,07,57,12.50
2015,05,27,07,58,12.50
2015,05,27,07,59,12.50
2015,05,27,08,00,12.50
2015,05,27,08,01,12.50
2015,05,27,08,02,12.50
2015,05,27,08,03,12.50
2015,05,27,08,04,12.60
2015,05,27,08,05,12.60
2015,05,27,08,06,12.60
2015,05,27,08,07,12.70
2015,05,27,08,08,12.70
2015,05,27,08,09,12.70
2015,05,27,08,10,12.70
2015,05,27,08,11,12.80
2015,05,27,08,12,12.80
2015,05,27,08,13,12.80
2015,05,27,08,14,12.90
2015,05,27,08,15,12.90
2015,05,27,08,16,13.00
2015,05,27,08,17,13.10
2015,05,27,08,18,13.10
2015,05,27,08,19,13.20
2015,05,27,08,20,13.20
2015,05,27,08,21,13.30
2015,05,27,08,22,13.30
2015,05,27,08,23,13.40
2015,05,27,08,24,13.40
2015,05,27,08,25,13.40
2015,05,27,08,26,13.50
2015,05,27,08,27,13.50
2015,05,27,08,28,13.50
2015,05,27,08,29,13.50
2015,05,27,08,30,13.60
2015,05,27,08,31,13.60
2015,05,27,08,32,13.60
2015,05,27,08,33,13.70
2015,05,27,08,34,13.70
2015,05,27,08,35,13.80
2015,05,27,08,36,13.90
2015,05,27,08,37,14.00
2015,05,27,08,38,14.10
2015,05,27,08,39,14.20
2015,05,27,08,40,14.20
2015,05,27,08,41,14.20
2015,05,27,08,42,14.30
2015,05,27,08,43,14.40
2015,05,27,08,44,14.50
2015,05,27,08,45,14.50
2015,05,27,08,46,14.60
2015,05,27,08,47,14.60
2015,05,27,08,48,14.70
2015,05,27,08,49,14.80
2015,05,27,08,50,14.80
2015,05,27,08,51,14.80
2015,05,27,08,52,14.80
2015,05,27,08,53,14.80
2015,05,27,08,54,14.90
2015,05,27,08,55,14.90
2015,05,27,08,56,14.90
2015,05,27,08,57,15.00
2015,05,27,08,58,15.00
2015,05,27,08,59,15.00
2015,05,27,09,00,14.80
2015,05,27,09,01,14.80
2015,05,27,09,02,14.60
2015,05,27,09,03,14.60
2015,05,27,09,04,14.60
2015,05,27,09,05,14.60
2015,05,27,09,06,14.60
2015,05,27,09,07,14.60
2015,05,27,09,08,14.50
2015,05,27,09,09,14.50
2015,05,27,09,10,14.50
2015,05,27,09,11,14.40
2015,05,27,09,12,14.40
2015,05,27,09,13,14.40
2015,05,27,09,14,14.40
2015,05,27,09,15,14.40
2015,05,27,09,16,14.30
2015,05,27,09,17,14.30
2015,05,27,09,18,14.40
2015,05,27,09,19,14.50
2015,05,27,09,20,14.50
2015,05,27,09,21,14.60
2015,05,27,09,22,14.60
2015,05,27,09,23,14.70
2015,05,27,09,24,14.70
2015,05,27,09,25,14.80
2015,05,27,09,26,14.80
2015,05,27,09,27,14.80
2015,05,27,09,28,14.90
2015,05,27,09,29,14.90
2015,05,27,09,30,15.00
2015,05,27,09,31,15.00
2015,05,27,09,32,15.10
2015,05,27,09,33,15.10
2015,05,27,09,34,15.10
2015,05,27,09,35,15.20
2015,05,27,09,36,15.20
2015,05,27,09,37,15.30
2015,05,27,09,38,15.30
2015,05,27,09,39,15.30
2015,05,27,09,40,15.30
2015,05,27,09,41,15.30
2015,05,27,09,42,15.30
2015,05,27,09,43,15.30
2015,05,27,09,44,15.30
2015,05,27,09,45,15.30
2015,05,27,09,46,15.40
2015,05,27,09,47,15.40
2015,05,27,09,48,15.50
2015,05,27,09,49,15.50
2015,05,27,09,50,15.50
2015,05,27,09,51,15.60
2015,05,27,09,52,15.60
2015,05,27,09,53,15.70
2015,05,27,09,54,15.80
2015,05,27,09,55,15.80
2015,05,27,09,56,15.90
2015,05,27,09,57,15.90
2015,05,27,09,58,15.90
2015,05,27,09,59,15.90
2015,05,27,10,00,15.90
2015,05,27,10,01,15.90
2015,05,27,10,02,15.90
2015,05,27,10,03,15.80
2015,05,27,10,04,15.90
2015,05,27,10,05,16.00
2015,05,27,10,06,16.00
2015,05,27,10,07,15.90
2015,05,27,10,08,15.90
2015,05,27,10,09,15.90
2015,05,27,10,10,15.90
2015,05,27,10,11,15.90
2015,05,27,10,12,15.90
2015,05,27,10,13,15.80
2015,05,27,10,14,15.90
2015,05,27,10,15,15.90
2015,05,27,10,16,15.90
2015,05,27,10,17,15.90
2015,05,27,10,18,15.90
2015,05,27,10,19,15.90
2015,05,27,10,20,15.70
2015,05,27,10,21,15.50
2015,05,27,10,22,15.50
2015,05,27,10,23,15.50
2015,05,27,10,24,15.50
2015,05,27,10,25,15.50
2015,05,27,10,26,15.40
2015,05,27,10,27,15.40
2015,05,27,10,28,15.40
2015,05,27,10,29,15.40
2015,05,27,10,30,15.50
2015,05,27,10,31,15.60
2015,05,27,10,32,15.60
2015,05,27,10,33,15.70
2015,05,27,10,34,15.80
2015,05,27,10,35,15.80
2015,05,27,10,36,15.80
2015,05,27,10,37,15.90
2015,05,27,10,38,15.80
2015,05,27,10,39,15.80
2015,05,27,10,40,15.70
2015,05,27,10,41,15.70
2015,05,27,10,42,15.70
2015,05,27,10,43,15.80
2015,05,27,10,44,15.80
2015,05,27,10,45,15.80
2015,05,27,10,46,15.80
2015,05,27,10,47,15.80
2015,05,27,10,48,15.80
2015,05,27,10,49,15.80
2015,05,27,10,50,15.80
2015,05,27,10,51,15.70
2015,05,27,10,52,15.70
2015,05,27,10,53,15.70
2015,05,27,10,54,15.70
2015,05,27,10,55,15.80
2015,05,27,10,56,15.80
2015,05,27,10,57,15.80
2015,05,27,10,58,15.90
2015,05,27,10,59,15.90
2015,05,27,11,00,16.00
2015,05,27,11,01,16.10
2015,05,27,11,02,16.10
2015,05,27,11,03,16.10
2015,05,27,11,04,16.10
2015,05,27,11,05,16.10
2015,05,27,11,06,16.10
2015,05,27,11,07,16.20
2015,05,27,11,08,16.20
2015,05,27,11,09,16.30
2015,05,27,11,10,16.30
2015,05,27,11,11,16.30
2015,05,27,11,12,16.20
2015,05,27,11,13,16.20
2015,05,27,11,14,16.20
2015,05,27,11,15,16.20
2015,05,27,11,16,16.10
2015,05,27,11,17,16.00
2015,05,27,11,18,15.90
2015,05,27,11,19,15.80
2015,05,27,11,20,15.80
2015,05,27,11,21,15.80
2015,05,27,11,22,15.80
2015,05,27,11,23,15.80
2015,05,27,11,24,15.90
2015,05,27,11,25,16.00
2015,05,27,11,26,16.10
2015,05,27,11,27,16.20
2015,05,27,11,28,16.20
2015,05,27,11,29,16.40
2015,05,27,11,30,16.50
2015,05,27,11,31,16.70
2015,05,27,11,32,16.70
2015,05,27,11,33,16.70
2015,05,27,11,34,16.80
2015,05,27,11,35,16.80
2015,05,27,11,36,16.90
2015,05,27,11,37,16.90
2015,05,27,11,38,16.90
2015,05,27,11,39,17.00
2015,05,27,11,40,17.00
2015,05,27,11,41,17.10
2015,05,27,11,42,17.00
2015,05,27,11,43,17.00
2015,05,27,11,44,17.00
2015,05,27,11,45,16.80
2015,05,27,11,46,16.80
2015,05,27,11,47,16.70
2015,05,27,11,48,16.60
2015,05,27,11,49,16.60
2015,05,27,11,50,16.50
2015,05,27,11,51,16.30
2015,05,27,11,52,16.20
2015,05,27,11,53,16.10
2015,05,27,11,54,16.10
2015,05,27,11,55,16.20
2015,05,27,11,56,16.20
2015,05,27,11,57,16.30
2015,05,27,11,58,16.40
2015,05,27,11,59,16.50
2015,05,27,12,00,16.60
2015,05,27,12,01,16.60
2015,05,27,12,02,16.50
2015,05,27,12,03,16.40
2015,05,27,12,04,16.50
2015,05,27,12,05,16.60
2015,05,27,12,06,16.70
2015,05,27,12,07,16.70
2015,05,27,12,08,16.80
2015,05,27,12,09,16.80
2015,05,27,12,10,16.70
2015,05,27,12,11,16.70
2015,05,27,12,12,16.70
2015,05,27,12,13,16.70
2015,05,27,12,14,16.80
2015,05,27,12,15,16.90
2015,05,27,12,16,17.00
2015,05,27,12,17,17.00
2015,05,27,12,18,16.90
2015,05,27,12,19,16.90
2015,05,27,12,20,16.80
2015,05,27,12,21,16.70
2015,05,27,12,22,16.60
2015,05,27,12,23,16.60
2015,05,27,12,24,16.50
2015,05,27,12,25,16.40
2015,05,27,12,26,16.50
2015,05,27,12,27,16.60
2015,05,27,12,28,16.70
2015,05,27,12,29,16.70
2015,05,27,12,30,16.90
2015,05,27,12,31,17.00
2015,05,27,12,32,17.00
2015,05,27,12,33,17.10
2015,05,27,12,34,17.10
2015,05,27,12,35,17.10
2015,05,27,12,36,17.20
2015,05,27,12,37,17.20
2015,05,27,12,38,17.20
2015,05,27,12,39,17.20
2015,05,27,12,40,17.20
2015,05,27,12,41,17.20
2015,05,27,12,42,17.30
2015,05,27,12,43,17.30
2015,05,27,12,44,17.30
2015,05,27,12,45,17.30
2015,05,27,12,46,17.30
2015,05,27,12,47,17.20
2015,05,27,12,48,17.20
2015,05,27,12,49,17.30
2015,05,27,12,50,17.30
2015,05,27,12,51,17.30
2015,05,27,12,52,17.20
2015,05,27,12,53,17.20
2015,05,27,12,54,17.20
2015,05,27,12,55,17.30
2015,05,27,12,56,17.30
2015,05,27,12,57,17.30
2015,05,27,12,58,17.40
2015,05,27,12,59,17.50
2015,05,27,13,00,17.50
2015,05,27,13,01,17.30
2015,05,27,13,02,17.30
2015,05,27,13,03,17.30
2015,05,27,13,04,17.30
2015,05,27,13,05,17.30
2015,05,27,13,06,17.30
2015,05,27,13,07,17.40
2015,05,27,13,08,17.50
2015,05,27,13,09,17.50
2015,05,27,13,10,17.70
2015,05,27,13,11,17.70
2015,05,27,13,12,17.70
2015,05,27,13,13,17.80
2015,05,27,13,14,17.80
2015,05,27,13,15,17.90
2015,05,27,13,16,17.90
2015,05,27,13,17,18.10
2015,05,27,13,18,18.10
2015,05,27,13,19,18.10
2015,05,27,13,20,18.20
2015,05,27,13,21,18.20
2015,05,27,13,22,18.10
2015,05,27,13,23,18.10
2015,05,27,13,24,18.10
2015,05,27,13,25,18.10
2015,05,27,13,26,18.10
2015,05,27,13,27,18.10
2015,05,27,13,28,18.20
2015,05,27,13,29,18.20
2015,05,27,13,30,18.20
2015,05,27,13,31,18.20
2015,05,27,13,32,18.20
2015,05,27,13,33,18.20
2015,05,27,13,34,18.30
2015,05,27,13,35,18.50
2015,05,27,13,36,18.60
2015,05,27,13,37,18.60
2015,05,27,13,38,18.70
2015,05,27,13,39,18.80
2015,05,27,13,40,18.90
2015,05,27,13,41,18.80
2015,05,27,13,42,18.60
2015,05,27,13,43,18.60
2015,05,27,13,44,18.50
2015,05,27,13,45,18.50
2015,05,27,13,46,18.40
2015,05,27,13,47,18.40
2015,05,27,13,48,18.30
2015,05,27,13,49,18.30
2015,05,27,13,50,18.10
2015,05,27,13,51,18.10
2015,05,27,13,52,18.20
2015,05,27,13,53,18.20
2015,05,27,13,54,18.20
2015,05,27,13,55,18.40
2015,05,27,13,56,18.40
2015,05,27,13,57,18.40
2015,05,27,13,58,18.50
2015,05,27,13,59,18.60
2015,05,27,14,00,18.60
2015,05,27,14,01,18.50
2015,05,27,14,02,18.30
2015,05,27,14,03,18.20
2015,05,27,14,04,18.30
2015,05,27,14,05,18.40
2015,05,27,14,06,18.40
2015,05,27,14,07,18.50
2015,05,27,14,08,18.50
2015,05,27,14,09,18.60
2015,05,27,14,10,18.50
2015,05,27,14,11,18.30
2015,05,27,14,12,18.20
2015,05,27,14,13,18.00
2015,05,27,14,14,17.90
2015,05,27,14,15,17.70
2015,05,27,14,16,17.80
2015,05,27,14,17,17.80
2015,05,27,14,18,17.80
2015,05,27,14,19,17.90
2015,05,27,14,20,18.10
2015,05,27,14,21,18.20
2015,05,27,14,22,18.20
2015,05,27,14,23,18.40
2015,05,27,14,24,18.50
2015,05,27,14,25,18.60
2015,05,27,14,26,18.70
2015,05,27,14,27,18.80
2015,05,27,14,28,18.90
2015,05,27,14,29,18.90
2015,05,27,14,30,18.90
2015,05,27,14,31,19.00
2015,05,27,14,32,19.10
2015,05,27,14,33,19.10
2015,05,27,14,34,19.10
2015,05,27,14,35,19.10
2015,05,27,14,36,19.10
2015,05,27,14,37,19.10
2015,05,27,14,38,19.10
2015,05,27,14,39,19.10
2015,05,27,14,40,19.10
2015,05,27,14,41,18.90
2015,05,27,14,42,18.80
2015,05,27,14,43,18.80
2015,05,27,14,44,18.90
2015,05,27,14,45,18.90
2015,05,27,14,46,19.00
2015,05,27,14,47,19.10
2015,05,27,14,48,19.10
2015,05,27,14,49,19.10
2015,05,27,14,50,19.10
2015,05,27,14,51,19.10
2015,05,27,14,52,19.10
2015,05,27,14,53,19.10
2015,05,27,14,54,19.10
2015,05,27,14,55,19.20
2015,05,27,14,56,19.20
2015,05,27,14,57,19.30
2015,05,27,14,58,19.50
2015,05,27,14,59,19.60
2015,05,27,15,00,19.70
2015,05,27,15,01,19.70
2015,05,27,15,02,19.80
2015,05,27,15,03,19.90
2015,05,27,15,04,20.00
2015,05,27,15,05,20.10
2015,05,27,15,06,20.20
2015,05,27,15,07,20.40
2015,05,27,15,08,20.50
2015,05,27,15,09,20.60
2015,05,27,15,10,20.80
2015,05,27,15,11,20.90
2015,05,27,15,12,21.00
2015,05,27,15,13,21.10
2015,05,27,15,14,21.10
2015,05,27,15,15,21.10
2015,05,27,15,16,21.00
2015,05,27,15,17,21.00
2015,05,27,15,18,21.00
2015,05,27,15,19,21.10
2015,05,27,15,20,21.10
2015,05,27,15,21,21.10
2015,05,27,15,22,21.20
2015,05,27,15,23,21.10
2015,05,27,15,24,21.20
2015,05,27,15,25,21.20
2015,05,27,15,26,21.30
2015,05,27,15,27,21.30
2015,05,27,15,28,21.30
2015,05,27,15,29,21.50
2015,05,27,15,30,21.60
2015,05,27,15,31,21.60
2015,05,27,15,32,21.60
2015,05,27,15,33,21.60
2015,05,27,15,34,21.60
2015,05,27,15,35,21.60
2015,05,27,15,36,21.60
2015,05,27,15,37,21.60
2015,05,27,15,38,21.60
2015,05,27,15,39,21.60
2015,05,27,16,46,21.80
2015,05,27,16,47,21.80
2015,05,27,16,48,21.60
2015,05,27,16,49,21.60
2015,05,27,16,50,21.60
2015,05,27,16,51,21.60
2015,05,27,16,52,21.50
2015,05,27,16,53,21.40
2015,05,27,16,54,21.50
2015,05,27,16,55,21.60
2015,05,27,16,56,21.60
2015,05,27,16,57,21.60
2015,05,27,16,58,21.60
2015,05,27,16,59,21.60
2015,05,27,17,00,21.60
2015,05,27,17,01,21.60
2015,05,27,17,02,21.60
2015,05,27,17,03,21.40
2015,05,27,17,04,21.30
2015,05,27,17,05,21.30
2015,05,27,17,06,21.30
2015,05,27,17,07,21.30
2015,05,27,17,08,21.20
2015,05,27,17,09,21.20
2015,05,27,17,10,21.20
2015,05,27,17,11,21.20
2015,05,27,17,12,21.30
2015,05,27,17,13,21.30
2015,05,27,17,14,21.30
2015,05,27,17,15,21.30
2015,05,27,17,16,21.30
2015,05,27,17,17,21.30
2015,05,27,17,18,21.30
2015,05,27,17,19,21.30
2015,05,27,17,20,21.30
2015,05,27,17,21,21.30
2015,05,27,17,22,21.30
2015,05,27,17,23,21.30
2015,05,27,17,24,21.30
2015,05,27,17,25,21.30
2015,05,27,17,26,21.30
2015,05,27,17,27,21.30
2015,05,27,17,28,21.20
2015,05,27,17,29,21.10
2015,05,27,17,30,21.10
2015,05,27,17,31,21.10
2015,05,27,17,32,21.00
2015,05,27,17,33,21.00
2015,05,27,17,34,21.00
2015,05,27,17,35,21.00
2015,05,27,17,36,21.00
2015,05,27,17,37,21.10
2015,05,27,17,38,21.20
2015,05,27,17,39,21.20
2015,05,27,17,40,21.20
2015,05,27,17,41,21.20
2015,05,27,17,42,21.10
2015,05,27,17,43,21.10
2015,05,27,17,44,21.20
2015,05,27,17,45,21.20
2015,05,27,17,46,21.20
2015,05,27,17,47,21.20
2015,05,27,17,48,21.20
2015,05,27,17,49,21.20
2015,05,27,17,50,21.20
2015,05,27,17,51,21.30
2015,05,27,17,52,21.30
2015,05,27,17,53,21.30
2015,05,27,17,54,21.30
2015,05,27,17,55,21.30
2015,05,27,17,56,21.30
2015,05,27,17,57,21.20
2015,05,27,17,58,21.20
2015,05,27,17,59,21.30
2015,05,27,18,00,21.30
2015,05,27,18,01,21.30
2015,05,27,18,02,21.20
2015,05,27,18,03,21.20
2015,05,27,18,04,21.20
2015,05,27,18,05,21.30
2015,05,27,18,06,21.30
2015,05,27,18,07,21.30
2015,05,27,18,08,21.30
2015,05,27,18,09,21.30
2015,05,27,18,10,21.30
2015,05,27,18,11,21.30
2015,05,27,18,12,21.30
2015,05,27,18,13,21.30
2015,05,27,18,14,21.30
2015,05,27,18,15,21.20
2015,05,27,18,16,21.20
2015,05,27,18,17,21.30
2015,05,27,18,18,21.30
2015,05,27,18,19,21.30
2015,05,27,18,20,21.30
2015,05,27,18,21,21.30
2015,05,27,18,22,21.30
2015,05,27,18,23,21.30
2015,05,27,18,24,21.30
2015,05,27,18,25,21.30